TimeCDT,TemperatureF,Dew PointF,Humidity,Sea Level PressureIn,VisibilityMPH,Wind Direction,Wind SpeedMPH,Gust SpeedMPH,PrecipitationIn,Events,Conditions,WindDirDegrees,DateUTC
12:15 AM,47.5,45.0,91,30.09,10.0,Calm,Calm,-,N/A,,Clear,0,2013-09-29 05:15:00
12:35 AM,47.3,45.1,92,30.09,10.0,Calm,Calm,-,N/A,,Clear,0,2013-09-29 05:35:00
12:55 AM,46.9,44.2,90,30.09,10.0,Calm,Calm,-,N/A,,Clear,0,2013-09-29 05:55:00
1:15 AM,47.3,45.5,93,30.09,10.0,Calm,Calm,-,N/A,,Clear,0,2013-09-29 06:15:00
1:35 AM,47.5,45.7,93,30.09,10.0,ESE,3.5,-,N/A,,Clear,110,2013-09-29 06:35:00
1:55 AM,46.9,45.5,95,30.09,10.0,ESE,3.5,-,N/A,,Clear,110,2013-09-29 06:55:00
2:15 AM,47.7,45.0,90,30.09,10.0,Calm,Calm,-,N/A,,Clear,0,2013-09-29 07:15:00
2:35 AM,47.3,44.6,90,30.09,10.0,Calm,Calm,-,N/A,,Clear,0,2013-09-29 07:35:00
2:55 AM,45.0,41.9,89,30.09,10.0,Calm,Calm,-,N/A,,Clear,0,2013-09-29 07:55:00
3:15 AM,44.2,42.4,93,30.08,10.0,Calm,Calm,-,N/A,,Clear,0,2013-09-29 08:15:00
3:35 AM,45.5,43.3,92,30.08,10.0,Calm,Calm,-,N/A,,Clear,0,2013-09-29 08:35:00
3:55 AM,45.3,43.2,92,30.07,10.0,Calm,Calm,-,N/A,,Clear,0,2013-09-29 08:55:00
4:15 AM,45.5,43.9,94,30.07,10.0,Calm,Calm,-,N/A,,Clear,0,2013-09-29 09:15:00
4:35 AM,45.1,43.3,93,30.07,10.0,Calm,Calm,-,N/A,,Clear,0,2013-09-29 09:35:00
4:55 AM,45.9,43.3,91,30.07,10.0,Calm,Calm,-,N/A,,Clear,0,2013-09-29 09:55:00
5:15 AM,45.3,43.2,92,30.08,10.0,Calm,Calm,-,N/A,,Clear,0,2013-09-29 10:15:00
5:35 AM,45.5,43.2,92,30.08,10.0,Calm,Calm,-,N/A,,Clear,0,2013-09-29 10:35:00
5:55 AM,44.8,42.8,93,30.08,10.0,Calm,Calm,-,N/A,,Clear,0,2013-09-29 10:55:00
6:15 AM,45.0,41.7,88,30.08,10.0,Calm,Calm,-,N/A,,Clear,0,2013-09-29 11:15:00
6:35 AM,45.0,42.3,90,30.08,10.0,Calm,Calm,-,N/A,,Clear,0,2013-09-29 11:35:00
6:55 AM,45.3,41.9,88,30.08,10.0,Calm,Calm,-,N/A,,Clear,0,2013-09-29 11:55:00
7:15 AM,44.8,41.9,90,30.08,10.0,Calm,Calm,-,N/A,,Clear,0,2013-09-29 12:15:00
7:35 AM,44.4,41.5,90,30.08,10.0,Calm,Calm,-,N/A,,Clear,0,2013-09-29 12:35:00
7:55 AM,44.2,42.1,92,30.08,10.0,Calm,Calm,-,N/A,,Clear,0,2013-09-29 12:55:00
8:15 AM,46.0,43.2,90,30.08,10.0,Calm,Calm,-,N/A,,Clear,0,2013-09-29 13:15:00
8:35 AM,48.2,44.6,87,30.08,10.0,Calm,Calm,-,N/A,,Clear,0,2013-09-29 13:35:00
8:55 AM,52.2,44.8,76,30.08,10.0,South,3.5,-,N/A,,Clear,180,2013-09-29 13:55:00
9:15 AM,54.5,45.7,72,30.08,10.0,South,3.5,-,N/A,,Clear,190,2013-09-29 14:15:00
9:35 AM,56.8,47.1,70,30.09,10.0,SW,3.5,-,N/A,,Clear,220,2013-09-29 14:35:00
9:55 AM,59.7,45.5,59,30.08,10.0,SSW,6.9,-,N/A,,Clear,210,2013-09-29 14:55:00
10:15 AM,62.1,45.9,55,30.08,10.0,SW,8.1,-,N/A,,Clear,220,2013-09-29 15:15:00
10:35 AM,64.2,45.1,50,30.08,10.0,SW,9.2,-,N/A,,Clear,220,2013-09-29 15:35:00
10:55 AM,66.4,44.8,46,30.08,10.0,SSW,10.4,-,N/A,,Clear,210,2013-09-29 15:55:00
11:15 AM,68.0,44.2,42,30.07,10.0,SSW,11.5,-,N/A,,Clear,210,2013-09-29 16:15:00
11:35 AM,69.1,44.2,41,30.07,10.0,SSW,11.5,-,N/A,,Clear,200,2013-09-29 16:35:00
11:55 AM,69.8,44.2,40,30.06,10.0,SSW,11.5,-,N/A,,Clear,210,2013-09-29 16:55:00
12:15 PM,70.9,44.4,39,30.05,10.0,SSW,10.4,-,N/A,,Clear,210,2013-09-29 17:15:00
12:35 PM,71.8,44.1,37,30.04,10.0,SSW,13.8,19.6,N/A,,Clear,200,2013-09-29 17:35:00
12:55 PM,72.9,43.7,35,30.03,10.0,South,13.8,17.3,N/A,,Clear,190,2013-09-29 17:55:00
1:15 PM,73.0,42.4,33,30.02,10.0,SSW,15.0,-,N/A,,Clear,210,2013-09-29 18:15:00
1:35 PM,73.6,43.7,34,30.01,10.0,South,13.8,20.7,N/A,,Clear,190,2013-09-29 18:35:00
1:55 PM,74.3,42.4,32,29.99,10.0,SSW,12.7,20.7,N/A,,Clear,200,2013-09-29 18:55:00
2:15 PM,74.5,41.9,31,29.98,10.0,South,12.7,-,N/A,,Clear,180,2013-09-29 19:15:00
2:35 PM,75.2,42.3,31,29.97,10.0,South,16.1,21.9,N/A,,Clear,170,2013-09-29 19:35:00
2:55 PM,75.2,42.8,31,29.97,10.0,SSW,13.8,-,N/A,,Clear,200,2013-09-29 19:55:00
3:15 PM,75.7,42.6,31,29.96,10.0,South,15.0,-,N/A,,Clear,190,2013-09-29 20:15:00
3:35 PM,75.6,42.3,30,29.95,10.0,South,16.1,21.9,N/A,,Clear,190,2013-09-29 20:35:00
3:55 PM,75.9,44.1,32,29.95,10.0,South,13.8,19.6,N/A,,Clear,180,2013-09-29 20:55:00
4:15 PM,75.2,42.3,31,29.95,10.0,South,15.0,-,N/A,,Clear,190,2013-09-29 21:15:00
4:35 PM,75.4,43.0,31,29.94,10.0,South,13.8,-,N/A,,Clear,190,2013-09-29 21:35:00
4:55 PM,75.0,42.1,31,29.93,10.0,SSW,15.0,19.6,N/A,,Clear,200,2013-09-29 21:55:00
5:15 PM,74.5,43.3,33,29.93,10.0,South,13.8,18.4,N/A,,Clear,180,2013-09-29 22:15:00
5:35 PM,73.8,42.8,33,29.93,10.0,South,12.7,-,N/A,,Clear,180,2013-09-29 22:35:00
5:55 PM,73.0,42.8,34,29.92,10.0,South,11.5,-,N/A,,Clear,170,2013-09-29 22:55:00
6:15 PM,72.1,45.1,38,29.91,10.0,South,10.4,-,N/A,,Clear,170,2013-09-29 23:15:00
6:35 PM,71.1,44.8,39,29.91,10.0,SSE,9.2,-,N/A,,Clear,160,2013-09-29 23:35:00
6:55 PM,68.9,44.2,41,29.91,10.0,SSE,10.4,-,N/A,,Clear,160,2013-09-29 23:55:00
7:15 PM,67.1,44.1,43,29.91,10.0,SSE,10.4,-,N/A,,Clear,160,2013-09-30 00:15:00
7:35 PM,66.2,43.7,44,29.91,10.0,South,9.2,-,N/A,,Clear,170,2013-09-30 00:35:00
7:55 PM,65.8,43.7,45,29.91,10.0,South,9.2,-,N/A,,Clear,170,2013-09-30 00:55:00
8:15 PM,65.3,44.2,46,29.91,10.0,SSE,8.1,-,N/A,,Clear,160,2013-09-30 01:15:00
8:35 PM,64.0,44.8,50,29.91,10.0,SSE,9.2,-,N/A,,Clear,160,2013-09-30 01:35:00
8:55 PM,62.4,44.8,52,29.92,10.0,South,5.8,-,N/A,,Clear,170,2013-09-30 01:55:00
9:15 PM,60.4,45.1,57,29.92,10.0,South,8.1,-,N/A,,Clear,170,2013-09-30 02:15:00
9:35 PM,61.0,45.1,56,29.92,10.0,SSE,6.9,-,N/A,,Clear,160,2013-09-30 02:35:00
9:55 PM,60.1,45.1,58,29.92,10.0,SSE,5.8,-,N/A,,Clear,160,2013-09-30 02:55:00
10:15 PM,59.2,45.1,60,29.92,10.0,SSE,8.1,-,N/A,,Clear,160,2013-09-30 03:15:00
10:35 PM,59.0,45.3,60,29.92,10.0,South,9.2,-,N/A,,Clear,170,2013-09-30 03:35:00
10:55 PM,57.4,45.5,65,29.93,10.0,South,8.1,-,N/A,,Clear,170,2013-09-30 03:55:00
11:15 PM,57.0,45.5,65,29.93,10.0,South,6.9,-,N/A,,Clear,180,2013-09-30 04:15:00
11:35 PM,54.9,45.7,71,29.93,10.0,South,8.1,-,N/A,,Clear,170,2013-09-30 04:35:00
11:55 PM,56.1,46.4,70,29.91,10.0,South,9.2,-,N/A,,Clear,170,2013-09-30 04:55:00